Weather in Yuzhny

Russia / Chelyabinsk Oblast     53°31′38″N   60°04′37″E
temp.,
°C
wind,
m/s
gust,
m/s
humid.,
%
clouds,
%
prec.,
mm/h
press.,
hPa
HPBL,
m
18 january, tue
tue1823:00−14sw6158960 0.0 1016313
02:00−13sw6159165 0.0 1016316
05:00−14sw6139445 0.0 1018240
08:00−13sw61392100 0.0 1018240
11:00−12sw6149033 0.0 1020307
14:00−11sw614905 0.0 1020359
17:00−11sw614915 0.0 1021285
20:00−11sw61493100 0.0 1022254
19 january, wed
wed1923:00−10sw61491100 0.0 1021288
02:00−11sw61491100 0.0 1022257
05:00−10sw61390100 0.0 1022272
08:00−11sw6129096 0.0 1023197
11:00−11sw51189100 0.0 1024189
14:00−9sw51188100 0.0 1023222
17:00−9sw51188100 0.0 1024191
20:00−9sw5119170 0.0 1025186
20 january, thu
thu2023:00−10sw5119276 0.0 1025160
02:00
05:00−13wsw499439 0.0 1026105
08:00−13sw4994100 0.0 1027119
11:00
14:00−8wsw3693100 0.0 1027174
17:00−9wsw3594100 0.0 102768
20:00−15wsw339852 0.0 102934
21 january, fri
fri2123:00−17wsw2210096 0.0 102915
02:00−19wsw22100100 0.0 103012
05:00−20w2210099 0.0 10319
08:00−20wnw1110095 0.0 10319
11:00−18wnw1110083 0.0 103117
14:00−12nw119694 0.0 103016
17:00−14nnw119782 0.0 10319
20:00−17wnw119947 0.0 10329
22 january, sat
sat2223:00−19wnw1110071 0.0 10349
02:00−20wnw1110096 0.0 10349
05:00−19w11100100 0.0 103510
08:00−18w1199100 0.0 10359
11:00−12sw1193100 0.0 103534
14:00−9ssw1186100 0.0 103560
17:00−11se1194100 0.0 103510
20:00−14se0095100 0.0 10369